This demonstration page uses our WeatherBlox Daily Observations layout. Learn more.

Left ArrowRight Arrow

Hourly Observations for August 27, 2018

Temp ( °F °C ) Dew Point ( °F °C ) Humidity (%) Winds ( mph kmh ) Pressure ( in mb ) Visibility ( mi km ) Precip ( " mm )
12:59 am 00:59 Clear 76 24.4 67 19.4 74 74 SSW 7 11 30.14 1021 10 16 0.00 0.00
1:59 am 01:59 Clear 76 24.4 68 20 77 77 SW 6 9 30.14 1021 10 16 0.00 0.00
2:59 am 02:59 Clear 75 23.9 67 19.4 76 76 S 6 9 30.12 1020 10 16 0.00 0.00
3:59 am 03:59 Clear 74 23.3 67 19.4 79 79 S 6 9 30.12 1020 10 16 0.00 0.00
4:59 am 04:59 Mostly Cloudy 74 23.3 67 19.4 79 79 SSW 6 9 30.12 1020 10 16 0.00 0.00
5:59 am 05:59 Partly Cloudy 74 23.3 67 19.4 79 79 SSW 6 9 30.13 1020 10 16 0.00 0.00
6:59 am 06:59 Partly Cloudy 74 23.3 67 19.4 79 79 SSW 5 7 30.14 1021 8 13 0.00 0.00
7:59 am 07:59 Mostly Sunny 76 24.4 68 20 77 77 SW 7 11 30.15 1021 8 13 0.00 0.00
8:59 am 08:59 Mostly Sunny 79 26.1 69 20.6 72 72 SSW 5 7 30.16 1021 8 13 0.00 0.00
9:59 am 09:59 Mostly Sunny 81 27.2 69 20.6 67 67 SW 7 11 30.16 1022 9 14 0.00 0.00
10:59 am 10:59 Mostly Sunny 84 28.9 70 21.1 63 63 SSW 8 13 30.17 1022 8 13 0.00 0.00
11:59 am 11:59 Mostly Sunny 86 30 72 22.2 63 63 SSW 6 9 30.16 1021 8 13 0.00 0.00
12:59 pm 12:59 Mostly Sunny 88 31.1 72 22.2 59 59 WSW 6 9 30.16 1021 8 13 0.00 0.00
1:59 pm 13:59 Partly Cloudy 89 31.7 73 22.8 59 59 WSW 6 9 30.14 1021 8 13 0.00 0.00
2:59 pm 14:59 Partly Cloudy 90 32.2 73 22.8 58 58 WNW 8 13 30.13 1020 7 11 0.00 0.00
3:59 pm 15:59 Partly Cloudy 91 32.8 72 22.2 54 54 NW 7 11 30.11 1020 7 11 0.00 0.00
4:59 pm 16:59 Partly Cloudy 90 32.2 71 21.7 54 54 WNW 6 9 30.10 1019 7 11 0.00 0.00
5:59 pm 17:59 Partly Cloudy 90 32.2 70 21.1 52 52 W 5 7 30.10 1019 7 11 0.00 0.00
6:59 pm 18:59 Partly Cloudy 87 30.6 75 23.9 67 67 ESE 3 6 30.10 1019 7 11 0.00 0.00
7:59 pm 19:59 Partly Cloudy 83 28.3 74 23.3 74 74 E 3 6 30.11 1020 8 13 0.00 0.00
8:59 pm 20:59 Partly Cloudy 81 27.2 73 22.8 77 77 S 5 7 30.11 1020 7 11 0.00 0.00
9:59 pm 21:59 Partly Cloudy 81 27.2 73 22.8 77 77 S 3 6 30.12 1020 8 13 0.00 0.00
10:59 pm 22:59 Partly Cloudy 81 27.2 73 22.8 77 77 SSW 7 11 30.13 1020 8 13 0.00 0.00
11:59 pm 23:59 Partly Cloudy 80 26.7 73 22.8 79 79 SSW 6 9 30.13 1020 8 13 0.00 0.00

Powered by AerisWeather